Regional Weather Roundup
Issued by NWS

Home | Current Version | Previous Version | Graphics & Text | Print | Product List | Glossary On
Versions: 1 2 3 4 5 6 7 8 9 10 11 12 13 14 15 16 17 18 19 20 21 22 23 24 25 26 27 28 29 30 31 32 33 34 35 36 37 38 39 40 41 42 43 44 45 46 47 48 49 50
000
ASUS43 KLMK 210010
RWRKY
KENTUCKY REGIONAL WEATHER ROUNDUP
NATIONAL WEATHER SERVICE LOUISVILLE KY
800 PM EDT WED SEP 20 2017

NOTE "FAIR" INDICATES FEW OR NO CLOUDS BELOW 12,000 FEET
WITH NO SIGNIFICANT WEATHER AND/OR OBSTRUCTIONS TO VISIBILITY.

KYZ001>023-026-027-061>063-070>075-210100-
WESTERN AND SOUTH CENTRAL KENTUCKY

CITY           SKY/WX    TMP DP  RH WIND       PRES   REMARKS
PADUCAH        CLEAR     85  70  60 CALM      29.94R
HENDERSON      CLEAR     83  72  69 S5        29.95S
OWENSBORO      CLEAR     83  72  69 S5        29.96S
HOPKINSVILLE   CLEAR     84  71  63 S5        29.97S
BOWLING GREEN  CLEAR     80  73  79 SE3       29.98F
GLASGOW        CLEAR     76  67  75 CALM      30.01S
$$

KYZ024-025-028>034-038-045-046-053-210100-
NORTH CENTRAL KENTUCKY

CITY           SKY/WX    TMP DP  RH WIND       PRES   REMARKS
LOUISVILLE/SDF MOCLDY    81  69  67 E8        29.98S
LOUISVILLE/LOU TSTM      76  68  76 SE6       30.00R
FORT KNOX      CLEAR     79  72  79 CALM      29.99R
$$

KYZ035>037-039>044-047>052-055>060-089>105-210100-
NORTHEAST KENTUCKY

CITY           SKY/WX    TMP DP  RH WIND       PRES   REMARKS
LEXINGTON      CLEAR     77  69  76 CALM      30.03R
COVINGTON      PTCLDY    74  70  87 S5        30.01S
FRANKFORT      CLEAR     75  69  81 CALM      30.01R
$$

KYZ054-064>069-076>088-106>120-210100-
SOUTHEAST KENTUCKY

CITY           SKY/WX    TMP DP  RH WIND       PRES   REMARKS
JACKSON        CLEAR     76  64  66 CALM      30.05S
LONDON         CLEAR     77  69  76 CALM      30.04S
SOMERSET       CLEAR     77  66  69 CALM      30.04S
MIDDLESBORO    CLEAR     73  67  80 CALM      30.06R
MONTICELLO     CLEAR     73  69  87 NE8       30.04F
$$





USA.gov is the U.S. government's official web portal to all federal, state and local government web resources and services.